Location: Lourdes
(43.1000°N, 0.0500°W)
Time: 13:02:22
(UTC+00:00)

X-37B - Pass Details

Date: 30 November 2020
Orbit: 383 x 391 km, 45.1° (Epoch: 22 January)

Event Time Altitude Azimuth Distance (km) Brightness Sun altitude
Rises 18:16:39 0° 259° (W) 2,257 6.1 -19.6°
Reaches altitude 10° 18:18:43 10° 261° (W) 1,406 4.6 -19.9°
Enters shadow 18:21:35 67° 296° (WNW) 422 0.8 -20.5°
